Tracking 27380 objects as of 6-Jun-2023
HD Live streaming from Space Station
objects crossing your sky now

OPS 4682 DEB

Track OPS 4682 DEB now!
10-day predictions


NORAD ID: 38380
Int'l Code: 1965-027CH
Perigee: 1,262.8 km
Apogee: 1,286.0 km
Inclination: 90.3 °
Period: 110.9 minutes
Semi major axis: 7645 km
RCS: 0.0076 m2 (small)
Launch date: April 3, 1965
Source: United States (US)
Launch site: AIR FORCE WESTERN TEST RANGE (AFWTR)

Note: This is SATELLITE DEBRIS
Your satellite tracking list
Your tracking list is empty




NASA's NSSDC Master Catalog

Two Line Element Set (TLE):
1 38380U 65027CH  23156.62183325  .00000210  00000-0  68786-3 0  9990
2 38380  90.2974 292.7971 0015182   0.1085   0.0037 12.98679186433796
Source of the keplerian elements: AFSPC